sat.trackr.live / text

‹ back to catalog

GRACE-FO 1

NORAD 43476 · 2018-047A

PAYLOAD ACTIVE UNKNOWN

§ Identity

Operator
Country
US
Launch date
2018-05-22
Launch site
AFWTR
Launch vehicle
Mass (kg)
RCS (m²)

External: N2YO · Heavens-Above · Gunter

§ Orbital elements

Epoch: 2026-09-20T04:20:02.391936Z

Period
93.51 min
Inclination
88.9997°
Eccentricity
0.0009817
Mean motion
15.39990817 rev/d
Perigee alt
439.4 km
Apogee alt
452.8 km
Semi-major
6,824.3 km
B*
7.3627e-5
RAAN
184.9160°
Arg perigee
93.8357°
Mean anomaly
266.4022°
Rev number
46,440

§ Raw data

GRACE-FO 11 43476U 18047A   26263.18058324  .00002973  00000+0  73627-4 0  99932 43476  88.9997 184.9160 0009817  93.8357 266.4022 15.39990817464407

JSON: /api/v1/satellites/43476 · /tle

For live sub-satellite position, see the globe view (requires WebGL).

§ Visibility from observer

Set your observer location to see the next 7 days of passes ≥ 10°. The values pass through the URL so the page stays shareable.

No JS? Fill the form by hand. The geolocation button needs JavaScript.